CZ-4 DEB, 26202

Orbit data source: Space-Track

CZ-4 DEB, 26202 is space debris in SSO originally from a launch on Thu, 14 Oct 1999 UTC launched from the Taiyaun Space Center, China (TSC). Debris objects in space refer to the collection of defunct objects orbiting the Earth. Examples of debris include non-operational satellites, rocket bodies, and fragments generated from explosions, collisions, or faulty payload assembly.

Loading next visibility...
Identifier
26202, 1999-057CQ
Orbit
SSO
Country
Flag of CNCN / PRC
Related business
Manufacturer
Unknown
Mission
Spacecraft
Bus & Motor
Unknown
Mass
Unknown
Launch date (UTC)
1999-10-14 (26 years ago)
Launch vehicle
Unknown
Launch site
Taiyaun Space Center, China (TSC)
Object type
Payload
Rocket body
Debris
Shape & HBR
Unknown shape, 0.1 m
Radar Cross Section
Small (<0.1 m²)

Expand to show TLE details & history
Last TLE update: 10 hours ago

TLE from 10 hours ago
0 CZ-4 DEB
1 26202U 99057CQ  25292.99936600  .00001847  00000-0  58628-3 0  9996
2 26202  98.8772 297.1464 0103597 331.9763 100.0092 14.38245428337247
Epoch: 2025-10-19T23:59Z
TLE epoch observation values (Epoch: 2025-10-19T23:59:05.222Z)
Latitude
71.09164°
Longitude
-118.30489°
Altitude
790.139 km
Speed
7.458 km/s
True Right ascension
18h 00m 41s
True Declination
70° 59' 11"
Sunlit
Object was in daylight at epoch
Visualization orbit readout
Latitude
Unknown
Longitude
Unknown
Altitude
Unknown
Speed
Unknown
Apparent Right ascension
Unknown
Apparent Declination
Unknown
Sunlit
N/A
Visualization observer readout
Local Sidereal Time
05:17:28
Azimuth
Unknown
Elevation
Unknown
Doppler factor
Unknown
Orbital elements
Apogee altitude
835.407 km
Perigee altitude
687.479 km
Semi-major axis
7,139.58 km
Eccentricity
0.01036
Inclination
98.8772°
RAAN
297.1464°
Arg. of periapsis
331.9763°
True anomaly
101.17556°
Mean anomaly
100.0092°
Eccentric anomaly
100.59265°
Mean motion
3.59778 °/min
Orbital period
100.06 mins
BSTAR
0.00058628
Loading maneuver chart data...
Computing Atmospheric mass density...

Documentation

Showing up to 5 results
|